This demonstration page uses our WeatherBlox Daily Observations layout. Learn more.

Left ArrowRight Arrow

34.02893, -84.19858

Hourly Observations for August 15, 2015

Temp ( °F °C ) Dew Point ( °F °C ) Humidity (%) Winds ( mph kmh ) Pressure ( in mb ) Visibility ( mi km ) Precip ( " mm )
12:53 am 00:53 Clear 74 23.3 64 17.8 71 71 Calm 30.09 1019 10 16 0.00 0.00
1:53 am 01:53 Clear 74 23.3 65 18.3 74 74 E 5 7 30.08 1019 10 16 0.00 0.00
2:53 am 02:53 Clear 73 22.8 65 18.3 76 76 Calm 30.07 1018 10 16 0.00 0.00
3:53 am 03:53 Clear 72 22.2 65 18.3 79 79 VRB 3 6 30.08 1019 10 16 0.00 0.00
4:53 am 04:53 Clear 70 21.1 65 18.3 84 84 Calm 30.08 1019 10 16 0.00 0.00
5:53 am 05:53 Partly Cloudy 70 21.1 66 18.9 87 87 Calm 30.10 1019 10 16 0.00 0.00
6:53 am 06:53 Cloudy 71 21.7 66 18.9 84 84 Calm 30.11 1020 10 16 0.00 0.00
7:53 am 07:53 Cloudy 71 21.7 66 18.9 84 84 Calm 30.13 1020 10 16 0.00 0.00
8:53 am 08:53 Sunny 74 23.3 66 18.9 76 76 ENE 3 6 30.14 1021 10 16 0.00 0.00
9:53 am 09:53 Sunny 79 26.1 64 17.8 60 60 NNE 6 9 30.15 1021 10 16 0.00 0.00
10:53 am 10:53 Mostly Sunny 82 27.8 61 16.1 49 49 ENE 3 6 30.14 1021 10 16 0.00 0.00
11:53 am 11:53 Sunny 84 28.9 62 16.7 48 48 VRB 3 6 30.14 1021 10 16 0.00 0.00
12:53 pm 12:53 Sunny 87 30.6 63 17.2 45 45 NNE 5 7 30.13 1020 10 16 0.00 0.00
1:53 pm 13:53 Sunny 88 31.1 61 16.1 40 40 VRB 3 6 30.11 1020 10 16 0.00 0.00
2:53 pm 14:53 Mostly Sunny 89 31.7 62 16.7 41 41 E 9 15 30.09 1019 10 16 0.00 0.00
3:53 pm 15:53 Partly Cloudy 89 31.7 61 16.1 39 39 SSE 7 11 30.07 1018 10 16 0.00 0.00
4:53 pm 16:53 Sunny 89 31.7 62 16.7 41 41 ESE 7 11 30.06 1018 10 16 0.00 0.00
5:53 pm 17:53 Sunny 88 31.1 60 15.6 39 39 ESE 7 11 30.06 1018 10 16 0.00 0.00
6:53 pm 18:53 Mostly Sunny 87 30.6 62 16.7 43 43 E 3 6 30.05 1018 10 16 0.00 0.00
7:53 pm 19:53 Sunny 84 28.9 63 17.2 49 49 ESE 3 6 30.05 1018 10 16 0.00 0.00
8:53 pm 20:53 Clear 81 27.2 64 17.8 57 57 Calm 30.06 1018 10 16 0.00 0.00
9:53 pm 21:53 Clear 79 26.1 65 18.3 62 62 Calm 30.07 1018 10 16 0.00 0.00
10:53 pm 22:53 Mostly Clear 79 26.1 64 17.8 60 60 E 3 6 30.09 1019 10 16 0.00 0.00
11:53 pm 23:53 Clear 78 25.6 64 17.8 62 62 E 3 6 30.10 1019 10 16 0.00 0.00

Powered by AerisWeather